User: anonymous   Login
Location: Kerb�bon
(47.7970°N, 3.3487°W)
Time: 22:23:50
(UTC+00:00)
Language:

Cosmos 1680 Rocket - Orbit

View from above orbital plane
View from above orbital plane
View from above satellite
View from above satellite

Ground track
Ground track

The orbit data is extracted from the following two-line orbital elements,

1 16012U 85079B   21213.52794613 -.00000022  00000-0  14082-5 0  9990
2 16012  74.0569 252.1609 0014056 143.2229 216.9891 14.36377366879856
Epoch (UTC): 01 August 2021 12:40:14
Eccentricity: 0.0014056
inclination: 74.0569°
perigee height: 760 km
apogee height: 780 km
right ascension of ascending node: 252.1609°
argument of perigee: 143.2229°
revolutions per day: 14.36377366
mean anomaly at epoch: 216.9891°
orbit number at epoch: 87985

The dashed part of the orbit path shows where the satellite is in the earth's shadow,  

DLR